SCP
3 3 2 1 0 0 0 0 0 0 0 0 0 0 1 1 1 1 1 1 1 1 1 0 0 0 0 0 0 0 0 0 0 0 0 0 0 0 0 0 0 0 0 0 0 0 0 0 0
3 3 2 1 0 0 0 0 0 0 0 0 0 1 1 1 1 1 1 1 1 1 1 0 0 0 0 0 0 0 0 0 0 0 0 0 0 0 0 0 0 0 0 0 0 0 0 0 0
3 3 2 1 0 0 0 0 0 0 0 0 0 1 1 1 1 1 2 2 1 1 1 0 0 0 0 0 0 0 0 0 0 0 0 0 0 0 0 0 0 0 0 0 0 0 0 0 0
3 3 2 1 0 0 0 0 0 0 0 0 0 1 2 2 2 2 2 2 1 1 1 0 0 0 0 0 0 0 0 0 0 0 0 0 0 0 0 0 0 0 0 0 0 0 0 0 0
3 2 1 0 0 0 0 0 0 0 0 0 1 2 3 3 2 2 2 2 2 2 1 1 0 0 0 0 0 0 0 0 0 0 0 0 0 0 0 0 0 0 0 0 0 0 0 0 0
2 1 1 0 0 0 0 0 0 0 0 1 1 2 3 3 3 3 2 2 2 2 1 1 0 0 0 0 0 0 0 0 0 0 0 0 0 0 0 0 0 0 0 0 0 0 0 0 0
2 1 1 0 0 0 0 0 0 1 1 1 2 3 4 4 4 4 3 3 3 2 1 1 1 0 0 0 0 0 0 0 0 0 0 0 0 0 0 0 0 0 0 0 0 0 0 0 0
1 1 1 0 0 0 0 0 1 1 1 2 2 3 4 5 5 5 4 4 3 2 1 1 1 0 0 0 0 0 0 0 0 0 0 0 0 0 0 0 0 0 0 0 0 0 0 0 0
1 1 1 0 0 0 0 0 0 1 1 2 3 4 4 6 6 6 5 4 4 3 2 1 1 1 0 0 0 0 0 0 0 0 0 0 0 0 0 0 0 0 0 0 0 0 0 0 0
1 1 1 0 0 0 0 0 0 0 1 2 3 3 4 5 6 6 5 4 4 3 2 1 1 1 1 0 0 0 0 0 0 0 0 0 0 0 0 0 0 0 0 0 0 0 0 0 0
1 1 1 0 0 0 0 0 0 0 1 1 2 3 3 4 5 6 5 4 3 3 2 2 2 1 1 1 0 0 0 0 0 0 0 0 0 0 0 0 0 0 0 0 0 0 0 0 0
1 1 0 0 0 0 0 0 0 1 1 2 3 3 3 4 5 5 5 4 3 3 3 2 2 2 1 1 1 1 1 0 0 0 0 0 0 0 0 0 0 0 0 0 0 0 0 0 0
1 0 0 0 0 0 0 0 0 1 2 2 3 3 4 4 4 5 4 4 3 3 3 2 2 2 1 1 1 1 1 0 0 0 0 0 0 0 0 0 0 0 0 0 0 0 0 0 0
0 0 0 0 0 0 0 0 0 1 1 2 2 3 3 3 4 4 4 3 3 3 3 2 2 2 2 1 1 1 1 1 0 0 0 0 0 0 0 0 0 0 0 0 0 0 0 0 0
0 0 0 0 0 0 0 0 0 0 1 1 2 2 2 3 3 4 4 3 3 3 3 2 2 2 2 2 1 1 1 1 1 1 0 0 0 0 0 0 0 0 0 0 0 0 0 0 0
1 0 0 0 0 0 0 0 0 0 0 1 1 1 2 2 2 3 3 3 3 2 2 3 2 2 2 2 1 1 1 1 1 1 1 1 1 0 0 0 0 0 0 0 0 0 0 0 0
1 0 0 0 0 0 0 0 0 0 0 0 0 1 1 1 1 2 2 2 2 2 2 2 2 2 2 2 2 1 1 1 1 1 1 1 1 1 1 1 1 1 1 1 1 0 0 0 0
0 0 0 0 0 0 0 0 0 0 0 0 0 0 1 1 1 1 1 2 2 2 2 2 2 2 2 2 2 2 2 2 1 1 1 1 1 1 1 1 1 1 1 1 1 1 0 0 0
0 0 0 0 0 0 0 0 0 0 0 0 0 0 0 0 0 0 1 1 2 2 2 2 2 2 2 3 3 3 2 2 2 2 2 1 1 1 1 1 1 1 1 1 1 1 1 0 0
0 0 0 0 0 0 0 0 0 0 0 0 0 0 0 0 0 0 1 1 2 2 2 2 3 3 3 3 3 3 3 2 2 2 2 2 2 1 1 1 1 1 1 1 1 1 1 1 1
0 0 0 0 0 0 0 0 0 0 0 0 0 0 0 0 0 0 1 1 2 2 2 3 3 3 3 3 3 3 2 2 2 2 2 1 1 1 1 1 1 1 1 1 1 1 1 0 0
0 0 0 0 0 0 0 0 0 0 0 0 0 0 0 0 0 0 1 1 1 2 2 3 3 3 3 3 3 2 2 2 1 1 1 1 1 1 1 1 1 1 1 1 1 1 1 0 0
0 0 0 0 0 0 0 0 0 0 0 0 0 0 0 0 0 0 0 1 1 1 2 2 2 2 2 2 2 2 2 1 1 1 1 1 1 1 1 1 1 1 0 0 0 0 0 0 0
0 0 0 0 0 0 0 0 0 0 0 0 0 0 0 0 0 0 0 0 0 0 1 1 1 1 2 2 2 2 1 1 1 1 1 1 1 1 0 0 0 0 0 0 0 0 0 0 0
0 0 0 0 0 0 0 0 0 0 0 0 0 0 0 0 0 0 0 0 0 0 0 0 0 1 1 1 1 1 1 1 1 1 1 1 1 0 0 0 0 0 0 0 0 0 0 0 0
0 0 0 0 0 0 0 0 0 0 0 0 0 0 0 0 0 0 0 0 0 0 0 0 0 0 0 0 0 1 1 1 1 1 1 1 0 0 0 0 0 0 0 0 0 0 0 0 0
0 0 0 0 0 0 0 0 0 0 0 0 0 0 0 0 0 0 0 0 0 0 0 0 0 0 0 0 0 0 0 0 0 0 0 0 0 0 0 0 0 0 0 0 0 0 0 0 0
0 0 0 0 0 0 0 0 0 0 0 0 0 0 0 0 0 0 0 0 0 0 0 0 0 0 0 0 0 0 0 0 0 0 0 0 0 0 0 0 0 0 0 0 0 0 0 0 0
0 0 0 0 0 0 0 0 0 0 0 0 0 0 0 0 0 0 0 0 0 0 0 0 0 0 0 0 0 0 0 0 0 0 0 0 0 0 0 0 0 0 0 0 0 0 0 0 0
0 0 0 0 0 0 0 0 0 0 0 0 0 0 0 0 0 0 0 0 0 0 0 0 0 0 0 0 0 0 0 0 0 0 0 0 0 0 0 0 0 0 0 0 0 0 0 0 0
Wind_Speed
11 11 7 2 3 4 10 10 8 6 3 1 5 5 6 9 6 11 7 15 19 18 17 15 16 16 16 15 14 13 12 12 12 13 14 14 14 15 15 16 16 16 16 16 16 16 15 14 14
9 9 4 3 5 8 10 11 9 6 1 2 3 3 4 9 7 8 8 17 19 18 15 14 16 16 16 15 14 13 12 12 12 13 13 14 14 15 15 15 16 15 15 15 14 14 13 13 12
10 10 4 4 7 11 10 11 9 6 3 1 1 3 5 7 6 5 11 17 17 16 14 16 16 16 16 15 14 13 12 12 13 13 13 14 14 14 15 15 14 14 14 13 13 13 12 12 11
6 4 4 7 13 14 10 5 5 7 4 2 2 3 6 6 4 7 13 15 16 15 15 15 16 16 15 14 13 13 12 12 13 13 13 14 14 14 14 14 13 12 12 12 12 12 11 11 10
5 4 7 9 14 13 7 1 1 6 7 5 4 3 5 4 5 9 9 13 14 15 15 15 16 16 15 14 13 12 12 12 13 13 13 14 14 14 13 12 12 11 11 11 11 10 10 9 8
3 4 7 12 15 13 7 4 3 4 5 7 5 5 4 1 3 4 6 11 13 15 15 14 15 15 14 13 12 11 11 11 12 12 13 13 13 13 12 11 10 10 10 9 9 9 8 8 7
5 5 9 13 14 12 8 5 4 4 4 5 3 6 6 4 3 2 4 9 13 14 14 11 11 12 12 12 11 10 9 10 10 11 12 12 11 11 11 10 9 8 8 7 7 7 6 6 5
4 3 11 13 13 10 7 5 2 2 1 3 3 4 7 7 5 3 4 8 10 11 12 11 10 10 9 8 10 10 9 10 10 11 11 10 10 10 10 8 7 7 6 5 5 4 3 2 1
4 5 10 13 9 6 6 6 3 1 4 4 6 6 10 13 9 6 5 6 7 8 9 10 10 10 9 9 9 9 9 9 10 8 10 9 6 7 6 8 7 6 5 4 3 2 2 2 3
6 7 12 11 6 4 4 5 5 4 5 4 8 10 12 11 10 9 8 8 7 8 7 7 8 8 9 8 7 6 6 6 6 6 7 5 4 4 7 9 8 6 5 4 5 5 5 5 4
7 10 11 9 3 1 2 3 4 6 5 5 8 13 13 11 10 9 9 8 8 7 7 7 7 7 7 6 5 4 4 5 5 7 7 4 4 4 5 4 4 4 5 4 5 5 5 5 3
9 12 11 7 0 1 2 3 4 3 4 6 8 12 11 11 10 9 9 8 8 8 7 7 7 6 6 5 4 4 3 3 3 4 4 3 2 2 3 3 4 4 4 4 4 4 5 4 4
13 10 10 7 3 3 2 4 2 3 6 7 9 10 10 10 8 7 7 7 7 8 8 7 7 7 5 4 3 3 3 3 3 3 2 2 2 2 2 2 2 2 2 3 2 3 3 2 3
10 10 8 7 7 4 3 5 4 6 6 7 8 8 8 8 7 7 7 7 7 7 8 7 7 7 6 4 3 2 3 2 3 3 2 2 2 2 1 1 1 1 1 1 2 3 2 2 2
8 7 6 6 8 5 2 6 7 8 6 7 7 8 8 7 7 7 7 6 6 6 7 7 7 7 7 6 4 3 3 3 3 3 3 3 2 2 2 1 1 2 2 2 2 3 2 2 2
5 6 7 7 8 6 5 8 9 8 6 6 7 7 7 6 7 6 6 7 6 6 6 6 6 6 6 5 4 3 3 3 3 3 2 3 3 3 2 2 2 2 1 1 1 2 2 2 3
5 8 10 7 9 6 6 6 8 7 6 5 5 7 7 7 7 6 6 6 6 6 6 6 5 6 6 5 4 3 3 3 2 2 2 2 2 2 2 2 2 2 1 1 2 2 2 3 3
9 9 11 9 9 9 9 7 7 6 5 6 6 5 6 7 8 7 6 5 5 5 6 7 6 6 6 4 3 3 2 2 2 2 2 2 1 1 1 1 2 2 1 2 2 3 3 2 3
6 8 10 9 9 10 11 11 10 7 5 7 7 6 5 5 7 8 7 6 5 5 6 7 7 6 5 4 4 3 3 3 2 2 3 2 1 1 1 0 1 1 1 2 3 2 3 3 2
6 8 7 5 9 8 8 11 9 10 10 9 9 9 7 6 5 7 7 6 6 6 6 6 6 6 5 4 3 3 3 2 3 3 3 2 2 1 1 1 1 1 1 2 3 2 2 2 1
6 7 6 6 6 6 5 7 11 10 10 11 11 10 9 8 8 8 8 7 6 6 6 5 6 5 5 5 4 3 3 2 2 2 2 2 3 3 3 2 2 2 1 2 2 2 2 2 2
6 5 6 8 6 4 7 4 10 12 13 14 13 11 10 9 8 8 9 8 7 6 5 4 5 5 4 5 5 5 4 3 3 3 3 3 3 4 3 3 3 2 2 2 2 2 2 2 3
2 1 4 6 5 3 6 5 6 11 12 14 13 12 11 10 9 9 9 9 8 7 5 4 4 4 4 4 5 5 4 3 3 3 4 4 4 4 4 4 3 3 2 3 3 3 3 2 2
1 2 3 2 1 3 7 6 5 8 12 10 10 10 9 8 8 7 7 8 7 7 6 5 5 4 4 4 4 4 5 5 5 4 3 3 3 3 4 3 3 3 3 3 3 3 3 3 3
4 4 3 3 3 5 7 6 5 2 4 4 5 6 6 5 5 6 7 8 8 8 7 6 6 5 5 4 4 5 5 5 5 4 3 3 2 2 3 3 3 2 3 3 3 3 3 3 3
6 4 2 3 5 2 4 6 3 3 5 4 2 1 1 2 3 5 7 8 8 8 7 7 7 6 5 5 5 5 5 4 4 4 4 3 3 3 4 3 2 3 3 3 2 2 2 2 2
3 4 2 2 1 2 4 4 3 4 4 3 2 1 1 1 2 3 5 7 8 8 8 7 7 7 6 6 6 5 5 5 5 5 4 4 4 3 3 2 2 2 2 2 2 2 2 2 2
2 2 1 1 1 2 5 6 4 7 5 5 3 3 2 2 2 2 4 6 7 7 7 7 8 7 6 6 6 5 6 5 5 5 4 4 4 3 2 2 2 2 2 2 2 2 2 2 2
3 2 3 2 2 1 1 0 3 6 6 6 5 5 4 3 2 2 3 5 6 6 6 6 7 7 7 7 6 6 6 5 5 4 4 4 4 3 2 2 2 2 2 2 2 2 2 3 3
4 5 4 2 2 2 0 1 3 7 6 5 5 4 3 3 2 2 4 5 5 6 6 6 6 7 7 7 7 6 6 5 5 5 4 4 4 3 3 2 2 2 2 2 2 2 3 3 3
Wind_Direction
292 269 249 233 226 223 232 236 232 237 217 10 1 350 23 36 56 116 138 125 124 129 136 140 138 134 128 122 117 113 109 107 104 100 96 92 88 86 84 83 83 82 82 81 81 80 80 79 78
287 273 243 226 223 221 222 226 223 215 133 40 357 339 51 72 62 110 129 123 127 129 139 141 137 134 129 125 120 117 114 109 107 103 100 97 93 90 87 85 84 84 84 83 82 81 80 79 78
273 263 236 217 228 226 220 210 205 180 109 79 346 353 40 56 86 111 119 127 127 131 137 133 137 133 129 126 123 120 116 112 112 107 104 102 98 95 92 89 88 87 87 85 83 82 80 79 76
256 231 234 231 226 231 240 227 177 153 139 192 191 88 76 26 4 106 120 130 127 129 125 133 135 132 129 127 125 123 119 117 116 113 108 107 104 100 97 95 93 90 88 87 84 82 80 78 74
247 226 216 225 231 225 229 310 163 165 159 183 202 123 73 4 26 102 130 131 128 124 126 136 133 132 130 128 127 125 122 120 121 118 113 112 109 106 103 100 98 94 91 88 86 82 79 75 70
222 217 209 214 222 222 203 168 239 218 175 173 192 133 91 42 75 125 143 128 124 122 128 134 134 132 130 129 127 127 126 124 123 121 116 115 114 111 109 106 103 97 92 88 85 81 77 72 65
212 211 220 215 215 215 197 159 196 229 199 162 167 125 123 118 104 133 127 122 119 123 129 135 135 131 128 126 126 126 124 123 124 121 119 118 118 118 116 113 109 102 95 91 87 83 78 73 63
226 220 227 226 217 211 183 159 165 263 187 77 46 129 143 142 134 125 100 109 117 127 136 141 142 138 135 127 124 122 120 120 120 121 123 126 130 131 129 122 112 109 105 101 98 94 93 94 97
232 223 219 218 221 211 172 157 152 27 82 76 71 67 120 135 134 129 112 112 123 134 140 145 147 148 145 138 134 126 123 124 126 129 141 147 160 153 147 128 130 128 128 131 137 159 201 215 222
202 214 220 221 227 218 193 169 161 164 133 120 103 104 124 136 142 147 146 145 147 148 145 144 147 147 141 138 149 151 149 151 165 158 172 196 177 133 129 139 152 159 170 180 200 216 236 238 226
205 218 218 228 232 171 202 200 184 173 164 148 138 139 143 145 149 155 157 159 161 155 147 144 140 138 134 144 162 156 157 170 188 167 185 185 133 132 138 158 164 185 195 203 210 218 232 231 208
221 226 219 218 211 199 216 226 227 182 122 112 126 142 149 153 156 160 161 164 163 158 153 147 142 141 145 152 151 150 152 169 169 162 177 164 146 159 169 172 178 189 194 198 192 219 222 218 219
226 227 218 195 190 222 229 239 215 134 115 111 125 141 151 154 158 160 155 160 162 161 160 155 151 150 150 145 149 162 157 162 154 145 179 154 139 181 172 190 174 208 193 175 210 246 257 247 253
220 228 219 193 191 215 211 246 199 155 137 128 133 142 151 153 157 156 153 161 170 165 164 157 158 155 151 151 160 168 152 142 137 142 180 170 161 160 126 224 169 229 211 229 226 250 256 262 265
231 218 210 202 193 188 194 238 215 173 165 153 148 144 150 158 160 164 161 163 170 165 163 160 162 159 160 164 173 166 154 154 149 151 180 170 168 152 158 250 206 228 227 234 242 279 298 298 295
207 206 202 201 198 185 196 220 220 187 186 183 165 152 155 156 167 169 164 163 169 161 160 162 163 167 167 166 167 161 168 157 154 153 170 176 183 175 177 210 235 243 236 233 243 263 281 274 265
185 195 195 191 199 178 201 228 227 212 194 210 201 171 164 161 169 161 157 159 158 161 161 161 161 167 170 166 162 162 162 151 151 144 150 163 175 168 173 205 238 245 240 243 250 247 253 271 276
182 193 192 189 188 190 206 230 237 223 214 227 238 217 179 170 169 157 157 157 153 161 167 168 169 172 167 162 158 154 154 150 144 137 137 138 151 162 181 223 258 274 257 257 258 256 255 255 272
197 201 200 194 180 190 211 227 227 223 229 234 240 245 220 195 167 151 152 160 163 172 173 171 171 176 164 156 160 160 167 161 147 134 114 111 95 86 105 320 302 307 282 273 276 272 273 269 270
235 216 203 180 169 186 208 230 225 215 216 228 236 240 231 213 184 155 154 162 171 178 181 172 169 172 164 156 153 147 143 138 130 121 109 93 78 58 63 21 327 324 316 306 300 297 280 272 237
238 224 191 159 164 203 202 229 228 220 218 219 230 236 233 217 198 173 167 168 172 177 176 171 164 160 154 145 129 113 98 94 121 134 121 92 76 58 48 30 6 348 342 304 307 310 288 277 271
219 219 189 163 163 200 195 221 218 212 213 214 219 225 227 221 208 183 172 169 168 160 145 144 141 140 141 141 144 152 157 163 163 147 134 118 91 68 47 29 10 356 348 329 319 325 309 288 278
219 166 177 174 197 217 204 230 233 205 210 210 210 215 218 213 206 189 175 168 157 144 139 139 136 139 142 143 149 156 148 139 122 112 122 121 106 89 65 36 17 7 4 356 347 337 326 304 280
166 142 143 174 209 238 209 216 253 209 207 205 201 205 211 206 195 180 165 147 141 136 140 146 149 148 143 140 142 143 140 134 131 133 136 129 122 109 87 52 22 15 17 6 354 341 334 332 317
190 147 137 164 196 234 197 208 241 206 175 174 187 198 199 193 178 165 155 150 147 148 153 157 154 154 148 138 128 121 122 125 131 133 127 119 114 104 84 61 31 26 19 7 356 338 336 343 336
206 205 178 183 190 205 178 212 238 123 96 84 74 73 156 182 176 168 160 156 154 157 160 164 159 155 146 134 121 109 104 102 101 92 92 92 92 92 79 60 40 38 24 8 358 347 351 358 354
199 226 280 323 296 152 208 228 213 134 129 141 162 171 196 183 166 151 148 152 154 159 167 169 158 150 144 136 125 117 107 101 101 95 87 84 82 83 73 63 54 52 36 12 2 16 13 30 32
298 275 231 186 201 211 203 206 203 170 165 149 145 143 138 133 126 135 141 146 154 158 161 159 149 145 140 134 128 118 110 105 106 105 103 98 94 86 75 65 62 56 40 20 30 31 35 67 57
194 215 243 246 275 263 205 218 38 108 112 116 109 94 85 91 115 136 135 138 139 142 147 149 146 142 141 133 124 122 117 116 115 111 108 106 105 98 83 73 66 57 37 28 52 58 59 82 73
260 227 216 212 264 273 316 258 84 94 96 100 107 110 109 107 110 130 137 136 141 148 152 153 150 147 144 137 135 130 126 130 129 120 113 108 108 100 88 80 77 70 47 34 57 70 65 79 80